DLH37T EDDF-LOWS

Flight info

Callsign DLH37T
Flight time 0h 40m
Altitude 29000
Route CINDY8S CINDY Z74 HAREM DCT ASLEP DCT TAKUT DCT DINKU L603 OLETU T702 BADIT BADIT2R
Aircraft A319/M-SDE3FGHIRWY/LB1

Departure

Time 2026-05-05 06:54
Airport Frankfurt Main Airport (EDDF)

Arrival

Time 2026-05-05 07:34
Airport Salzburg Airport (LOWS)
Time Latitude Longitude Altitude Speed Heading
2026-05-05 06:18 50.04040 8.55546 351 ft 0 kts 160°
2026-05-05 06:48 50.04040 8.55547 351 ft 1 kts 160°
2026-05-05 06:49 50.04024 8.55556 358 ft 4 kts 160°
2026-05-05 06:49 50.03981 8.55578 352 ft 8 kts 168°
2026-05-05 06:49 50.03944 8.55512 351 ft 9 kts 249°
2026-05-05 06:49 50.03920 8.55412 354 ft 11 kts 249°
2026-05-05 06:50 50.03890 8.55288 354 ft 14 kts 250°
2026-05-05 06:50 50.03855 8.55140 350 ft 16 kts 249°
2026-05-05 06:50 50.03813 8.54965 351 ft 18 kts 250°
2026-05-05 06:50 50.03766 8.54770 347 ft 20 kts 249°
2026-05-05 06:51 50.03715 8.54557 346 ft 22 kts 250°
2026-05-05 06:51 50.03658 8.54318 347 ft 24 kts 249°
2026-05-05 06:51 50.03598 8.54067 346 ft 25 kts 249°
2026-05-05 06:51 50.03535 8.53804 340 ft 27 kts 249°
2026-05-05 06:52 50.03474 8.53547 337 ft 24 kts 250°
2026-05-05 06:52 50.03416 8.53303 336 ft 25 kts 249°
2026-05-05 06:52 50.03354 8.53044 334 ft 26 kts 249°
2026-05-05 06:52 50.03297 8.52809 333 ft 23 kts 249°
2026-05-05 06:53 50.03240 8.52618 336 ft 18 kts 221°
2026-05-05 06:53 50.03117 8.52597 336 ft 20 kts 180°
2026-05-05 06:53 50.02787 8.52601 334 ft 88 kts 179°
2026-05-05 06:53 50.01914 8.52610 337 ft 159 kts 179°
2026-05-05 06:54 50.00769 8.52623 863 ft 171 kts 179°
2026-05-05 06:54 49.99552 8.52630 1680 ft 174 kts 179°
2026-05-05 06:54 49.98271 8.52645 2258 ft 194 kts 177°
2026-05-05 06:54 49.96902 8.53242 2704 ft 219 kts 149°
2026-05-05 06:55 49.95809 8.54962 3554 ft 230 kts 122°
2026-05-05 06:55 49.95020 8.57141 4618 ft 233 kts 120°
2026-05-05 06:55 49.94277 8.59396 5615 ft 238 kts 111°
2026-05-05 06:55 49.93970 8.62012 6351 ft 260 kts 97°
2026-05-05 06:56 49.93846 8.64917 7036 ft 277 kts 96°
2026-05-05 06:56 49.93467 8.67862 7970 ft 281 kts 112°
2026-05-05 06:56 49.92506 8.70501 8961 ft 283 kts 131°
2026-05-05 06:56 49.91054 8.72548 9926 ft 285 kts 147°
2026-05-05 06:57 49.89439 8.74437 10466 ft 307 kts 140°
2026-05-05 06:57 49.87956 8.77006 11106 ft 324 kts 127°
2026-05-05 06:57 49.86797 8.80049 11956 ft 331 kts 121°
2026-05-05 06:57 49.85685 8.83143 12824 ft 336 kts 121°
2026-05-05 06:58 49.84530 8.86326 13683 ft 341 kts 122°
2026-05-05 06:58 49.83341 8.89584 14467 ft 346 kts 122°
2026-05-05 06:58 49.82165 8.92806 15255 ft 349 kts 122°
2026-05-05 06:58 49.80949 8.96140 16063 ft 352 kts 122°
2026-05-05 06:59 49.79757 8.99414 16835 ft 356 kts 122°
2026-05-05 06:59 49.78534 9.02765 17625 ft 359 kts 123°
2026-05-05 06:59 49.77299 9.06147 18362 ft 363 kts 123°
2026-05-05 06:59 49.76192 9.09692 18996 ft 371 kts 113°
2026-05-05 07:00 49.75480 9.13574 19626 ft 378 kts 107°
2026-05-05 07:00 49.74636 9.17416 20260 ft 378 kts 117°
2026-05-05 07:00 49.73344 9.20948 20911 ft 378 kts 128°
2026-05-05 07:00 49.71674 9.24098 21562 ft 380 kts 134°
2026-05-05 07:01 49.69922 9.27182 22213 ft 384 kts 134°
2026-05-05 07:01 49.68149 9.30301 22842 ft 388 kts 134°
2026-05-05 07:01 49.66357 9.33450 23459 ft 393 kts 134°
2026-05-05 07:01 49.64546 9.36640 23997 ft 396 kts 134°
2026-05-05 07:02 49.62804 9.39960 24533 ft 402 kts 127°
2026-05-05 07:02 49.61424 9.43748 25060 ft 409 kts 117°
2026-05-05 07:02 49.60450 9.47895 25569 ft 414 kts 111°
2026-05-05 07:02 49.59556 9.52128 26078 ft 417 kts 111°
2026-05-05 07:03 49.58646 9.56395 26584 ft 420 kts 112°
2026-05-05 07:03 49.57724 9.60681 27087 ft 423 kts 112°
2026-05-05 07:03 49.56788 9.64996 27586 ft 426 kts 112°
2026-05-05 07:03 49.55844 9.69335 28103 ft 428 kts 112°
2026-05-05 07:04 49.54902 9.73660 28606 ft 430 kts 112°
2026-05-05 07:04 49.53942 9.78067 28851 ft 431 kts 112°
2026-05-05 07:04 49.52863 9.82326 28902 ft 428 kts 120°
2026-05-05 07:04 49.51273 9.86224 28892 ft 433 kts 131°
2026-05-05 07:05 49.49366 9.89831 28874 ft 437 kts 133°
2026-05-05 07:05 49.45506 9.97122 28895 ft 441 kts 133°
2026-05-05 07:06 49.41646 10.04452 28897 ft 442 kts 133°
2026-05-05 07:06 49.37775 10.11776 28893 ft 442 kts 133°
2026-05-05 07:07 49.33893 10.19084 28884 ft 442 kts 133°
2026-05-05 07:07 49.30005 10.26365 28883 ft 441 kts 133°
2026-05-05 07:08 49.26108 10.33639 28878 ft 442 kts 133°
2026-05-05 07:08 49.22040 10.40651 28877 ft 439 kts 139°
2026-05-05 07:09 49.17652 10.47164 28879 ft 440 kts 139°
2026-05-05 07:09 49.13268 10.53676 28880 ft 440 kts 139°
2026-05-05 07:10 49.08882 10.60178 28875 ft 440 kts 139°
2026-05-05 07:10 49.04492 10.66670 28865 ft 439 kts 140°
2026-05-05 07:11 49.00105 10.73140 28875 ft 439 kts 140°
2026-05-05 07:11 48.95715 10.79582 28879 ft 438 kts 140°
2026-05-05 07:12 48.91352 10.85957 28878 ft 438 kts 140°
2026-05-05 07:12 48.86965 10.92374 28877 ft 438 kts 140°
2026-05-05 07:13 48.82580 10.98792 28860 ft 438 kts 140°
2026-05-05 07:13 48.78183 11.05187 28861 ft 438 kts 140°
2026-05-05 07:14 48.73772 11.11581 28457 ft 438 kts 140°
2026-05-05 07:14 48.71574 11.14769 28187 ft 437 kts 139°
2026-05-05 07:14 48.69380 11.17942 27912 ft 435 kts 140°
2026-05-05 07:14 48.67206 11.21082 27291 ft 430 kts 139°
2026-05-05 07:15 48.65059 11.24198 26640 ft 426 kts 137°
2026-05-05 07:15 48.63150 11.27602 25993 ft 424 kts 130°
2026-05-05 07:15 48.61389 11.31153 25351 ft 420 kts 130°
2026-05-05 07:15 48.59646 11.34668 24709 ft 416 kts 129°
2026-05-05 07:16 48.57913 11.38155 24101 ft 413 kts 129°
2026-05-05 07:16 48.56195 11.41607 23498 ft 410 kts 129°
2026-05-05 07:16 48.54533 11.44941 22884 ft 406 kts 129°
2026-05-05 07:16 48.52843 11.48325 22330 ft 402 kts 129°
2026-05-05 07:17 48.51169 11.51669 21822 ft 397 kts 129°
2026-05-05 07:17 48.49508 11.54978 21311 ft 394 kts 129°
2026-05-05 07:17 48.47869 11.58263 20826 ft 390 kts 128°
2026-05-05 07:17 48.46489 11.61771 20337 ft 389 kts 117°
2026-05-05 07:18 48.45499 11.65553 19843 ft 387 kts 111°
2026-05-05 07:18 48.44590 11.69353 19342 ft 384 kts 112°
2026-05-05 07:18 48.43686 11.73110 18830 ft 381 kts 111°
2026-05-05 07:18 48.42786 11.76844 18314 ft 379 kts 111°
2026-05-05 07:19 48.41887 11.80560 17755 ft 377 kts 112°
2026-05-05 07:19 48.40994 11.84244 17221 ft 373 kts 112°
2026-05-05 07:19 48.40112 11.87889 16695 ft 369 kts 112°
2026-05-05 07:19 48.39253 11.91427 16177 ft 367 kts 112°
2026-05-05 07:20 48.38379 11.95015 15659 ft 364 kts 112°
2026-05-05 07:20 48.37513 11.98576 15125 ft 362 kts 112°
2026-05-05 07:20 48.36650 12.02118 14597 ft 360 kts 112°
2026-05-05 07:20 48.35789 12.05641 14063 ft 358 kts 112°
2026-05-05 07:21 48.34932 12.09144 13517 ft 356 kts 112°
2026-05-05 07:21 48.34076 12.12627 12943 ft 354 kts 112°
2026-05-05 07:21 48.33228 12.16073 12403 ft 350 kts 112°
2026-05-05 07:21 48.32388 12.19485 11849 ft 347 kts 112°
2026-05-05 07:22 48.31555 12.22869 11292 ft 344 kts 112°
2026-05-05 07:22 48.30729 12.26223 10742 ft 341 kts 112°
2026-05-05 07:22 48.29910 12.29537 10355 ft 334 kts 112°
2026-05-05 07:22 48.29124 12.32727 10235 ft 318 kts 112°
2026-05-05 07:23 48.28370 12.35775 10109 ft 305 kts 112°
2026-05-05 07:23 48.27646 12.38702 9941 ft 295 kts 112°
2026-05-05 07:23 48.26941 12.41549 9814 ft 288 kts 112°
2026-05-05 07:23 48.26243 12.44360 9678 ft 287 kts 112°
2026-05-05 07:24 48.25545 12.47157 9340 ft 285 kts 113°
2026-05-05 07:24 48.24580 12.49709 9005 ft 280 kts 133°
2026-05-05 07:24 48.23204 12.51754 8667 ft 277 kts 138°
2026-05-05 07:24 48.21807 12.53752 8338 ft 277 kts 138°
2026-05-05 07:25 48.20412 12.55745 8003 ft 277 kts 138°
2026-05-05 07:25 48.19022 12.57725 7684 ft 276 kts 138°
2026-05-05 07:25 48.17629 12.59707 7358 ft 275 kts 138°
2026-05-05 07:25 48.16244 12.61677 7043 ft 275 kts 138°
2026-05-05 07:26 48.14861 12.63645 6727 ft 274 kts 138°
2026-05-05 07:26 48.13482 12.65604 6410 ft 273 kts 139°
2026-05-05 07:26 48.12110 12.67555 6086 ft 271 kts 139°
2026-05-05 07:26 48.10755 12.69482 5761 ft 267 kts 139°
2026-05-05 07:27 48.09429 12.71366 5431 ft 259 kts 139°
2026-05-05 07:27 48.08140 12.73195 5113 ft 253 kts 139°
2026-05-05 07:27 48.06873 12.74991 4792 ft 248 kts 139°
2026-05-05 07:27 48.05630 12.76751 4465 ft 243 kts 139°
2026-05-05 07:28 48.04407 12.78482 4136 ft 241 kts 138°
2026-05-05 07:28 48.03213 12.80170 3982 ft 231 kts 138°
2026-05-05 07:28 48.02080 12.81770 3980 ft 218 kts 138°
2026-05-05 07:28 48.01016 12.83274 3981 ft 205 kts 138°
2026-05-05 07:29 47.99976 12.84742 3983 ft 206 kts 139°
2026-05-05 07:29 47.98933 12.86211 3984 ft 206 kts 138°
2026-05-05 07:29 47.97888 12.87679 3990 ft 206 kts 139°
2026-05-05 07:29 47.96830 12.89126 3979 ft 206 kts 144°
2026-05-05 07:30 47.95571 12.90096 3988 ft 202 kts 159°
2026-05-05 07:30 47.93081 12.91675 3983 ft 190 kts 159°
2026-05-05 07:30 47.91933 12.92407 3986 ft 176 kts 158°
2026-05-05 07:31 47.91166 12.92894 3779 ft 177 kts 158°
2026-05-05 07:31 47.89695 12.93828 3430 ft 168 kts 158°
2026-05-05 07:31 47.88655 12.94488 3210 ft 157 kts 158°
2026-05-05 07:31 47.87996 12.94907 3086 ft 147 kts 158°
2026-05-05 07:32 47.86807 12.95661 2830 ft 136 kts 158°
2026-05-05 07:32 47.86222 12.96032 2710 ft 135 kts 159°
2026-05-05 07:32 47.85084 12.96752 2477 ft 133 kts 158°
2026-05-05 07:32 47.84237 12.97288 2286 ft 132 kts 158°
2026-05-05 07:33 47.83670 12.97648 2165 ft 131 kts 157°
2026-05-05 07:33 47.82834 12.98181 1990 ft 130 kts 157°
2026-05-05 07:33 47.82007 12.98704 1816 ft 128 kts 157°
2026-05-05 07:33 47.81186 12.99220 1654 ft 127 kts 157°
2026-05-05 07:34 47.80378 12.99732 1468 ft 125 kts 157°
2026-05-05 07:34 47.79629 13.00206 1422 ft 97 kts 158°
2026-05-05 07:34 47.79253 13.00443 1421 ft 34 kts 156°
2026-05-05 07:34 47.79119 13.00477 1419 ft 14 kts 230°
2026-05-05 07:35 47.79121 13.00342 1420 ft 13 kts 277°
2026-05-05 07:35 47.79164 13.00233 1420 ft 13 kts 335°
2026-05-05 07:35 47.79246 13.00182 1420 ft 13 kts 337°
2026-05-05 07:35 47.79324 13.00133 1420 ft 11 kts 337°
2026-05-05 07:36 47.79351 13.00044 1420 ft 11 kts 248°
2026-05-05 07:36 47.79325 12.99961 1420 ft 7 kts 235°
2026-05-05 07:36 47.79296 12.99985 1420 ft 6 kts 107°
2026-05-05 07:36 47.79289 13.00035 1420 ft 2 kts 102°
2026-05-05 07:37 47.79286 13.00053 1420 ft 0 kts 102°